{"data":{"norad_id":60918,"epoch":"2026-05-25T02:59:58.532064Z","epoch_age_seconds":71074,"freshness":"FRESH","line1":"1 60918U 24154R   26145.12498301  .00000015  00000+0  12637-4 0  9994","line2":"2 60918  53.1595 289.0874 0000974  98.0898 262.0213 15.30189954 98035","mean_motion":15.30189954,"eccentricity":9.74e-5,"inclination_deg":53.1595,"raan_deg":289.0874,"arg_perigee_deg":98.0898,"mean_anomaly_deg":262.0213,"bstar":1.2637e-5,"rev_number":9803,"period_min":94.105963526669,"perigee_km":474.57754571548,"apogee_km":475.91258454177,"semimajor_km":6853.3820651286,"source":"CELESTRAK","updated_at":"2026-05-25T13:38:19.315215Z"}}